Location: Larne
(54.8508°N, 5.8183°W)
Time: 13:46:29
(UTC+01:00)

ISS - Pass Details

Date: 26 September 2021
Orbit: 417 x 423 km, 51.6° (Epoch: 16 October)

Event Time Altitude Azimuth Distance (km) Brightness Sun altitude
Rises 19:50:48 0° 255° (WSW) 2,362 1.6 -6.5°
Reaches altitude 10° 19:52:56 10° 250° (WSW) 1,499 0.2 -6.8°
Maximum altitude 19:56:11 47° 175° (S) 562 -3.2 -7.3°
Enters shadow 19:59:22 11° 100° (E) 1,475 -1.7 -7.7°
